Location: Balaclava NSW 2575, Australia
(34.4510°S, 150.4953°E)
Time: 17:19:48
(UTC+10:00)

Envisat - Pass Details

Date: 20 May 2021
Orbit: 764 x 766 km, 98.1° (Epoch: 18 June)

Event Time Altitude Azimuth Distance (km) Brightness Sun altitude
Rises 17:30:53 0° 170° (S) 3,265 6.0 -6.5°
Reaches altitude 10° 17:33:13 10° 171° (S) 2,332 5.2 -7.0°
Maximum altitude 17:38:21 76° 256° (WSW) 798 3.3 -8.0°
Drops below altitude 10° 17:43:25 10° 341° (NNW) 2,302 6.0 -9.0°
Sets 17:45:43 0° 342° (NNW) 3,221 6.8 -9.4°
